Location: Arbon
(43.0005°N, 0.7472°E)
Time: 11:09:24
(UTC+00:00)

Molniya-1 - Pass Details

Date: 22 April 2026
Orbit: 352 x 13511 km, 62.9° (Epoch: 15 May)

Event Time Altitude Azimuth Distance (km) Brightness Sun altitude
Rises 20:22:34 0° 218° (SW) 2,158 6.4 -16.3°
Reaches altitude 10° 20:24:08 10° 218° (SW) 1,348 5.3 -16.5°
Maximum altitude 20:26:36 85° 308° (NW) 464 2.9 -16.9°
Drops below altitude 10° 20:31:11 10° 37° (NE) 2,491 6.7 -17.6°
Sets 20:35:12 0° 38° (NE) 4,453 7.9 -18.2°
